This demonstration page uses our WeatherBlox Daily Observations layout. Learn more.

38.88101, -77.10428

Hourly Observations for September 16, 2015

Temp ( °F °C ) Dew Point ( °F °C ) Humidity (%) Winds ( mph kmh ) Pressure ( in mb ) Visibility ( mi km ) Precip ( " mm )
12:52 am 00:52 Partly Cloudy 67 19.4 57 13.9 71 71 Calm 30.35 1028 10 16.0934 0 0
1:52 am 01:52 Mostly Cloudy 66 18.9 57 13.9 73 73 Calm 30.35 1028 10 16.0934 0 0
2:52 am 02:52 Mostly Cloudy 65 18.3 57 13.9 76 76 Calm 30.34 1028 10 16.0934 0 0
3:52 am 03:52 Mostly Cloudy 63 17.2 58 14.4 84 84 Calm 30.34 1027 10 16.0934 0 0
4:52 am 04:52 Mostly Cloudy 63 17.2 56 13.3 78 78 Calm 30.34 1027 10 16.0934 0 0
5:52 am 05:52 Partly Cloudy 63 17.2 56 13.3 78 78 Calm 30.34 1028 10 16.0934 0 0
6:52 am 06:52 Mostly Cloudy 63 17.2 56 13.3 78 78 N 3 6 30.35 1028 10 16.0934 0 0
7:52 am 07:52 Partly Cloudy 65 18.3 58 14.4 78 78 Calm 30.36 1028 10 16.0934 0 0
8:52 am 08:52 Partly Cloudy 70 21.1 56 13.3 61 61 N 3 6 30.37 1028 10 16.0934 0 0
9:52 am 09:52 Partly Cloudy 73 22.8 58 14.4 59 59 VRB 3 6 30.37 1028 10 16.0934 0 0
10:52 am 10:52 Mostly Sunny 76 24.4 58 14.4 54 54 E 3 6 30.37 1028 10 16.0934 0 0
11:52 am 11:52 Partly Cloudy 81 27.2 59 15 47 47 ENE 5 7 30.35 1028 10 16.0934 0 0
12:52 pm 12:52 Mostly Sunny 83 28.3 55 12.8 38 38 ENE 5 7 30.33 1027 10 16.0934 0 0
1:52 pm 13:52 Mostly Sunny 84 28.9 53 11.7 34 34 ESE 3 6 30.31 1026 10 16.0934 0 0
2:52 pm 14:52 Partly Cloudy 84 28.9 53 11.7 34 34 Calm 30.28 1025 10 16.0934 0 0
3:52 pm 15:52 Partly Cloudy 85 29.4 52 11.1 32 32 S 3 6 30.26 1025 10 16.0934 0 0
4:52 pm 16:52 Partly Cloudy 85 29.4 52 11.1 32 32 SSE 6 9 30.24 1024 10 16.0934 0 0
5:52 pm 17:52 Mostly Cloudy 84 28.9 54 12.2 36 36 S 6 9 30.24 1024 10 16.0934 0 0
6:52 pm 18:52 Mostly Cloudy 81 27.2 55 12.8 41 41 SSE 9 15 30.24 1024 10 16.0934 0 0
7:07 pm 19:07 Mostly Cloudy 81 27 61 16 51 51 SE 9 15 30.24 1024 10 16.0934 0 0
7:52 pm 19:52 Mostly Cloudy 77 25 59 15 54 54 SSE 6 9 30.24 1024 10 16.0934 0 0
8:52 pm 20:52 Mostly Cloudy 75 23.9 60 15.6 60 60 SSE 7 11 30.24 1024 10 16.0934 0 0
9:52 pm 21:52 Mostly Cloudy 72 22.2 60 15.6 66 66 S 10 17 30.24 1024 10 16.0934 0 0
10:52 pm 22:52 Mostly Cloudy 71 21.7 59 15 66 66 SSW 6 9 30.24 1024 10 16.0934 0 0
11:52 pm 23:52 Partly Cloudy 70 21.1 60 15.6 71 71 SSW 5 7 30.24 1024 10 16.0934 0 0

Powered by AerisWeather